Time,TemperatureF,DewpointF,PressureIn,WindDirection,WindDirectionDegrees,WindSpeedMPH,WindSpeedGustMPH,Humidity,HourlyPrecipIn,Conditions,Clouds,dailyrainin,SoftwareType,DateUTC
2017-10-16 00:00:00,57.8,27.3,30.14,North,355,0.0,0.0,31,0.00,,,0.00,Wunderground v.1.15,2017-10-16 07:00:00,
2017-10-16 00:10:00,57.5,27.8,30.14,North,355,0.0,2.0,32,0.00,,,0.00,Wunderground v.1.15,2017-10-16 07:10:00,
2017-10-16 00:20:00,57.1,28.2,30.14,North,355,0.0,0.0,33,0.00,,,0.00,Wunderground v.1.15,2017-10-16 07:20:00,
2017-10-16 00:25:00,56.3,28.3,30.14,North,355,0.0,0.0,34,0.00,,,0.00,Wunderground v.1.15,2017-10-16 07:25:00,
2017-10-16 00:30:00,55.6,27.6,30.14,North,355,0.0,0.0,34,0.00,,,0.00,Wunderground v.1.15,2017-10-16 07:30:00,
2017-10-16 00:40:00,54.6,28.2,30.14,North,355,0.0,0.0,36,0.00,,,0.00,Wunderground v.1.15,2017-10-16 07:40:00,
2017-10-16 00:45:00,54.0,28.3,30.14,North,355,0.0,0.0,37,0.00,,,0.00,Wunderground v.1.15,2017-10-16 07:45:00,
2017-10-16 00:50:00,53.6,27.9,30.14,North,355,0.0,0.0,37,0.00,,,0.00,Wunderground v.1.15,2017-10-16 07:50:00,
2017-10-16 00:55:00,53.4,28.4,30.13,North,355,0.0,0.0,38,0.00,,,0.00,Wunderground v.1.15,2017-10-16 07:55:00,
2017-10-16 01:00:00,53.4,28.4,30.13,North,355,0.0,0.0,38,0.00,,,0.00,Wunderground v.1.15,2017-10-16 08:00:00,
2017-10-16 01:10:00,53.5,29.1,30.13,North,355,0.0,0.0,39,0.00,,,0.00,Wunderground v.1.15,2017-10-16 08:10:00,
2017-10-16 01:15:00,53.4,29.0,30.13,North,355,0.0,0.0,39,0.00,,,0.00,Wunderground v.1.15,2017-10-16 08:15:00,
2017-10-16 01:20:00,53.2,28.9,30.13,North,355,0.0,0.0,39,0.00,,,0.00,Wunderground v.1.15,2017-10-16 08:20:00,
2017-10-16 01:25:00,53.1,28.8,30.13,North,355,0.0,0.0,39,0.00,,,0.00,Wunderground v.1.15,2017-10-16 08:25:00,
2017-10-16 01:35:00,52.7,29.0,30.13,North,355,0.0,0.0,40,0.00,,,0.00,Wunderground v.1.15,2017-10-16 08:35:00,
2017-10-16 01:40:00,52.4,28.8,30.13,North,355,0.0,0.0,40,0.00,,,0.00,Wunderground v.1.15,2017-10-16 08:40:00,
2017-10-16 01:45:00,52.1,28.5,30.13,North,355,0.0,0.0,40,0.00,,,0.00,Wunderground v.1.15,2017-10-16 08:45:00,
2017-10-16 01:55:00,51.9,28.3,30.13,North,355,0.0,0.0,40,0.00,,,0.00,Wunderground v.1.15,2017-10-16 08:55:00,
2017-10-16 02:00:00,51.8,28.8,30.13,North,355,0.0,0.0,41,0.00,,,0.00,Wunderground v.1.15,2017-10-16 09:00:00,
2017-10-16 02:10:00,51.4,29.1,30.13,North,355,0.0,0.0,42,0.00,,,0.00,Wunderground v.1.15,2017-10-16 09:10:00,
2017-10-16 02:20:00,50.9,28.6,30.13,North,355,0.0,0.0,42,0.00,,,0.00,Wunderground v.1.15,2017-10-16 09:20:00,
2017-10-16 02:25:00,50.9,28.6,30.14,North,355,0.0,0.0,42,0.00,,,0.00,Wunderground v.1.15,2017-10-16 09:25:00,
2017-10-16 02:30:00,50.9,29.2,30.14,North,355,0.0,0.0,43,0.00,,,0.00,Wunderground v.1.15,2017-10-16 09:30:00,
2017-10-16 02:35:00,50.9,28.6,30.14,North,355,0.0,0.0,42,0.00,,,0.00,Wunderground v.1.15,2017-10-16 09:35:00,
2017-10-16 02:40:00,50.8,28.5,30.14,North,355,0.0,0.0,42,0.00,,,0.00,Wunderground v.1.15,2017-10-16 09:40:00,
2017-10-16 02:45:00,50.8,28.5,30.14,North,355,0.0,0.0,42,0.00,,,0.00,Wunderground v.1.15,2017-10-16 09:45:00,
2017-10-16 02:50:00,50.8,28.5,30.13,North,355,0.0,0.0,42,0.00,,,0.00,Wunderground v.1.15,2017-10-16 09:50:00,
2017-10-16 02:55:00,50.8,28.5,30.13,North,355,0.0,0.0,42,0.00,,,0.00,Wunderground v.1.15,2017-10-16 09:55:00,
2017-10-16 03:10:00,52.1,28.5,30.13,North,355,0.0,0.0,40,0.00,,,0.00,Wunderground v.1.15,2017-10-16 10:10:00,
2017-10-16 03:20:00,51.7,28.1,30.13,North,355,0.0,0.0,40,0.00,,,0.00,Wunderground v.1.15,2017-10-16 10:20:00,
2017-10-16 03:25:00,51.8,27.6,30.13,North,355,0.0,0.0,39,0.00,,,0.00,Wunderground v.1.15,2017-10-16 10:25:00,
2017-10-16 03:30:00,52.2,28.6,30.13,North,355,0.0,0.0,40,0.00,,,0.00,Wunderground v.1.15,2017-10-16 10:30:00,
2017-10-16 03:35:00,52.1,28.5,30.13,North,355,0.0,0.0,40,0.00,,,0.00,Wunderground v.1.15,2017-10-16 10:35:00,
2017-10-16 03:40:00,51.9,28.3,30.13,North,355,0.0,0.0,40,0.00,,,0.00,Wunderground v.1.15,2017-10-16 10:40:00,
2017-10-16 03:45:00,51.7,28.1,30.13,North,355,0.0,0.0,40,0.00,,,0.00,Wunderground v.1.15,2017-10-16 10:45:00,
2017-10-16 03:50:00,51.3,27.8,30.13,North,355,0.0,0.0,40,0.00,,,0.00,Wunderground v.1.15,2017-10-16 10:50:00,
2017-10-16 03:55:00,51.3,27.8,30.13,North,355,0.0,0.0,40,0.00,,,0.00,Wunderground v.1.15,2017-10-16 10:55:00,
2017-10-16 04:10:00,51.2,27.1,30.13,North,355,0.0,0.0,39,0.00,,,0.00,Wunderground v.1.15,2017-10-16 11:10:00,
2017-10-16 04:15:00,51.2,27.1,30.13,North,355,0.0,0.0,39,0.00,,,0.00,Wunderground v.1.15,2017-10-16 11:15:00,
2017-10-16 04:20:00,51.1,27.6,30.13,North,355,0.0,0.0,40,0.00,,,0.00,Wunderground v.1.15,2017-10-16 11:20:00,
2017-10-16 04:30:00,51.4,27.2,30.12,North,355,0.0,0.0,39,0.00,,,0.00,Wunderground v.1.15,2017-10-16 11:30:00,
2017-10-16 04:35:00,51.6,27.4,30.13,North,355,0.0,0.0,39,0.00,,,0.00,Wunderground v.1.15,2017-10-16 11:35:00,
2017-10-16 04:45:00,51.1,27.0,30.12,North,355,0.0,0.0,39,0.00,,,0.00,Wunderground v.1.15,2017-10-16 11:45:00,
2017-10-16 04:50:00,51.0,26.9,30.12,North,355,0.0,0.0,39,0.00,,,0.00,Wunderground v.1.15,2017-10-16 11:50:00,
2017-10-16 04:55:00,50.9,26.8,30.13,North,355,0.0,0.0,39,0.00,,,0.00,Wunderground v.1.15,2017-10-16 11:55:00,
2017-10-16 05:00:00,50.7,26.6,30.13,North,355,0.0,0.0,39,0.00,,,0.00,Wunderground v.1.15,2017-10-16 12:00:00,
2017-10-16 05:10:00,50.3,26.9,30.13,North,355,0.0,0.0,40,0.00,,,0.00,Wunderground v.1.15,2017-10-16 12:10:00,
2017-10-16 05:15:00,50.2,26.8,30.13,North,355,0.0,0.0,40,0.00,,,0.00,Wunderground v.1.15,2017-10-16 12:15:00,
2017-10-16 05:20:00,50.0,26.0,30.13,North,355,0.0,0.0,39,0.00,,,0.00,Wunderground v.1.15,2017-10-16 12:20:00,
2017-10-16 05:25:00,49.8,26.4,30.13,North,355,0.0,0.0,40,0.00,,,0.00,Wunderground v.1.15,2017-10-16 12:25:00,
2017-10-16 05:30:00,49.6,25.6,30.13,North,355,0.0,0.0,39,0.00,,,0.00,Wunderground v.1.15,2017-10-16 12:30:00,
2017-10-16 05:35:00,49.8,25.8,30.13,North,355,0.0,0.0,39,0.00,,,0.00,Wunderground v.1.15,2017-10-16 12:35:00,
2017-10-16 05:45:00,50.0,25.4,30.13,North,355,0.0,0.0,38,0.00,,,0.00,Wunderground v.1.15,2017-10-16 12:45:00,
2017-10-16 05:50:00,50.4,25.1,30.13,North,355,0.0,0.0,37,0.00,,,0.00,Wunderground v.1.15,2017-10-16 12:50:00,
2017-10-16 05:55:00,50.5,25.8,30.13,North,355,0.0,0.0,38,0.00,,,0.00,Wunderground v.1.15,2017-10-16 12:55:00,
2017-10-16 06:00:00,50.9,26.2,30.14,North,355,0.0,0.0,38,0.00,,,0.00,Wunderground v.1.15,2017-10-16 13:00:00,
2017-10-16 06:10:00,50.7,26.0,30.14,North,355,0.0,0.0,38,0.00,,,0.00,Wunderground v.1.15,2017-10-16 13:10:00,
2017-10-16 06:20:00,49.9,25.3,30.14,North,355,0.0,0.0,38,0.00,,,0.00,Wunderground v.1.15,2017-10-16 13:20:00,
2017-10-16 06:25:00,49.8,25.8,30.14,North,355,0.0,0.0,39,0.00,,,0.00,Wunderground v.1.15,2017-10-16 13:25:00,
2017-10-16 06:35:00,49.5,25.5,30.14,North,355,0.0,0.0,39,0.00,,,0.00,Wunderground v.1.15,2017-10-16 13:35:00,
2017-10-16 06:40:00,49.4,24.8,30.14,North,355,0.0,0.0,38,0.00,,,0.00,Wunderground v.1.15,2017-10-16 13:40:00,
2017-10-16 06:50:00,49.4,25.4,30.14,North,355,0.0,0.0,39,0.00,,,0.00,Wunderground v.1.15,2017-10-16 13:50:00,
2017-10-16 06:55:00,49.4,24.8,30.14,North,355,0.0,0.0,38,0.00,,,0.00,Wunderground v.1.15,2017-10-16 13:55:00,
2017-10-16 07:00:00,49.6,25.0,30.14,North,355,0.0,0.0,38,0.00,,,0.00,Wunderground v.1.15,2017-10-16 14:00:00,
2017-10-16 07:10:00,49.7,25.7,30.14,North,355,0.0,0.0,39,0.00,,,0.00,Wunderground v.1.15,2017-10-16 14:10:00,
2017-10-16 07:15:00,49.7,25.7,30.14,North,355,0.0,0.0,39,0.00,,,0.00,Wunderground v.1.15,2017-10-16 14:15:00,
2017-10-16 07:20:00,49.8,26.4,30.14,North,355,0.0,0.0,40,0.00,,,0.00,Wunderground v.1.15,2017-10-16 14:20:00,
2017-10-16 07:30:00,49.7,25.1,30.14,North,355,0.0,0.0,38,0.00,,,0.00,Wunderground v.1.15,2017-10-16 14:30:00,
2017-10-16 07:40:00,49.7,25.7,30.14,North,355,0.0,0.0,39,0.00,,,0.00,Wunderground v.1.15,2017-10-16 14:40:00,
2017-10-16 07:45:00,49.9,25.3,30.14,North,355,0.0,0.0,38,0.00,,,0.00,Wunderground v.1.15,2017-10-16 14:45:00,
2017-10-16 07:50:00,50.1,25.5,30.14,North,355,0.0,0.0,38,0.00,,,0.00,Wunderground v.1.15,2017-10-16 14:50:00,
2017-10-16 07:55:00,50.3,26.3,30.14,North,355,0.0,0.0,39,0.00,,,0.00,Wunderground v.1.15,2017-10-16 14:55:00,
2017-10-16 08:00:00,50.4,26.3,30.14,NNW,332,0.0,0.0,39,0.00,,,0.00,Wunderground v.1.15,2017-10-16 15:00:00,
2017-10-16 08:10:00,50.9,26.8,30.14,NNW,333,0.0,0.0,39,0.00,,,0.00,Wunderground v.1.15,2017-10-16 15:10:00,
2017-10-16 08:20:00,51.4,28.5,30.15,NNW,332,0.0,0.0,41,0.00,,,0.00,Wunderground v.1.15,2017-10-16 15:20:00,
2017-10-16 08:25:00,51.7,28.1,30.15,NNW,332,0.0,0.0,40,0.00,,,0.00,Wunderground v.1.15,2017-10-16 15:25:00,
2017-10-16 08:35:00,53.4,28.4,30.15,ENE,63,0.0,0.0,38,0.00,,,0.00,Wunderground v.1.15,2017-10-16 15:35:00,
2017-10-16 08:40:00,55.0,30.5,30.15,ENE,63,0.0,0.0,39,0.00,,,0.00,Wunderground v.1.15,2017-10-16 15:40:00,
2017-10-16 08:45:00,56.4,31.7,30.15,ENE,63,0.0,0.0,39,0.00,,,0.00,Wunderground v.1.15,2017-10-16 15:45:00,
2017-10-16 08:50:00,57.6,32.2,30.15,ENE,63,0.0,0.0,38,0.00,,,0.00,Wunderground v.1.15,2017-10-16 15:50:00,
2017-10-16 08:55:00,58.5,33.0,30.15,ENE,63,0.0,0.0,38,0.00,,,0.00,Wunderground v.1.15,2017-10-16 15:55:00,
2017-10-16 09:00:00,59.6,33.3,30.15,ENE,63,0.0,0.0,37,0.00,,,0.00,Wunderground v.1.15,2017-10-16 16:00:00,
2017-10-16 09:10:00,62.3,34.3,30.15,ENE,63,0.0,0.0,35,0.00,,,0.00,Wunderground v.1.15,2017-10-16 16:10:00,
2017-10-16 09:15:00,63.6,33.9,30.15,ENE,63,0.0,0.0,33,0.00,,,0.00,Wunderground v.1.15,2017-10-16 16:15:00,
2017-10-16 09:25:00,64.9,35.1,30.15,South,178,0.0,0.0,33,0.00,,,0.00,Wunderground v.1.15,2017-10-16 16:25:00,
2017-10-16 09:30:00,65.2,34.6,30.15,SSE,150,0.0,0.0,32,0.00,,,0.00,Wunderground v.1.15,2017-10-16 16:30:00,
2017-10-16 09:35:00,66.0,36.8,30.15,SSE,150,0.0,0.0,34,0.00,,,0.00,Wunderground v.1.15,2017-10-16 16:35:00,
2017-10-16 09:40:00,66.3,35.5,30.15,East,91,0.0,0.0,32,0.00,,,0.00,Wunderground v.1.15,2017-10-16 16:40:00,
2017-10-16 09:45:00,66.8,34.3,30.15,East,91,0.0,0.0,30,0.00,,,0.00,Wunderground v.1.15,2017-10-16 16:45:00,
2017-10-16 09:50:00,67.6,34.2,30.15,East,91,0.0,0.0,29,0.00,,,0.00,Wunderground v.1.15,2017-10-16 16:50:00,
2017-10-16 09:55:00,68.5,35.8,30.15,East,91,0.0,0.0,30,0.00,,,0.00,Wunderground v.1.15,2017-10-16 16:55:00,
2017-10-16 10:10:00,71.6,32.9,30.15,East,94,0.0,0.0,24,0.00,,,0.00,Wunderground v.1.15,2017-10-16 17:10:00,
2017-10-16 10:20:00,73.7,32.5,30.14,ESE,104,0.0,0.0,22,0.00,,,0.00,Wunderground v.1.15,2017-10-16 17:20:00,
2017-10-16 10:25:00,74.9,31.1,30.15,ESE,104,0.0,0.0,20,0.00,,,0.00,Wunderground v.1.15,2017-10-16 17:25:00,
2017-10-16 10:35:00,76.3,29.7,30.15,SSW,211,0.0,0.0,18,0.00,,,0.00,Wunderground v.1.15,2017-10-16 17:35:00,
2017-10-16 10:40:00,76.9,27.3,30.14,SE,126,0.0,0.0,16,0.00,,,0.00,Wunderground v.1.15,2017-10-16 17:40:00,
2017-10-16 10:45:00,78.0,28.1,30.14,SE,133,0.0,2.0,16,0.00,,,0.00,Wunderground v.1.15,2017-10-16 17:45:00,
2017-10-16 10:50:00,78.6,28.6,30.14,SE,140,1.0,2.0,16,0.00,,,0.00,Wunderground v.1.15,2017-10-16 17:50:00,
2017-10-16 10:55:00,79.1,29.0,30.14,SE,146,1.0,2.0,16,0.00,,,0.00,Wunderground v.1.15,2017-10-16 17:55:00,
2017-10-16 11:00:00,79.5,29.4,30.14,SE,146,0.0,0.0,16,0.00,,,0.00,Wunderground v.1.15,2017-10-16 18:00:00,
2017-10-16 11:10:00,80.5,28.6,30.14,SE,138,1.0,3.0,15,0.00,,,0.00,Wunderground v.1.15,2017-10-16 18:10:00,
2017-10-16 11:20:00,80.3,28.4,30.14,SW,219,2.0,2.0,15,0.00,,,0.00,Wunderground v.1.15,2017-10-16 18:20:00,
2017-10-16 11:25:00,80.4,28.5,30.13,SE,131,1.0,2.0,15,0.00,,,0.00,Wunderground v.1.15,2017-10-16 18:25:00,
2017-10-16 11:30:00,80.9,28.9,30.13,SE,139,0.0,1.0,15,0.00,,,0.00,Wunderground v.1.15,2017-10-16 18:30:00,
2017-10-16 11:40:00,81.8,26.1,30.13,SE,142,0.0,0.0,13,0.00,,,0.00,Wunderground v.1.15,2017-10-16 18:40:00,
2017-10-16 11:50:00,82.3,26.5,30.13,SE,139,1.0,1.0,13,0.00,,,0.00,Wunderground v.1.15,2017-10-16 18:50:00,
2017-10-16 11:55:00,82.5,28.5,30.12,South,182,1.0,1.0,14,0.00,,,0.00,Wunderground v.1.15,2017-10-16 18:55:00,
2017-10-16 12:00:00,81.7,29.5,30.12,ESE,111,0.0,1.0,15,0.00,,,0.00,Wunderground v.1.15,2017-10-16 19:00:00,
2017-10-16 12:10:00,80.8,30.4,30.11,SSE,163,2.0,2.0,16,0.00,,,0.00,Wunderground v.1.15,2017-10-16 19:10:00,
2017-10-16 12:15:00,81.0,30.6,30.11,SSW,209,1.0,2.0,16,0.00,,,0.00,Wunderground v.1.15,2017-10-16 19:15:00,
2017-10-16 12:20:00,81.8,31.2,30.11,SW,232,0.0,0.0,16,0.00,,,0.00,Wunderground v.1.15,2017-10-16 19:20:00,
2017-10-16 12:30:00,82.3,30.0,30.11,South,170,0.0,0.0,15,0.00,,,0.00,Wunderground v.1.15,2017-10-16 19:30:00,
2017-10-16 12:40:00,82.3,30.0,30.11,SSW,194,0.0,0.0,15,0.00,,,0.00,Wunderground v.1.15,2017-10-16 19:40:00,
2017-10-16 12:50:00,82.9,28.8,30.10,South,189,0.0,7.0,14,0.00,,,0.00,Wunderground v.1.15,2017-10-16 19:50:00,
2017-10-16 12:55:00,82.6,28.6,30.10,South,173,0.0,7.0,14,0.00,,,0.00,Wunderground v.1.15,2017-10-16 19:55:00,
2017-10-16 13:00:00,82.3,30.0,30.10,SSW,198,0.0,0.0,15,0.00,,,0.00,Wunderground v.1.15,2017-10-16 20:00:00,
2017-10-16 13:10:00,82.7,30.3,30.10,WSW,256,0.0,0.0,15,0.00,,,0.00,Wunderground v.1.15,2017-10-16 20:10:00,
2017-10-16 13:15:00,82.7,26.8,30.09,SE,128,1.0,1.0,13,0.00,,,0.00,Wunderground v.1.15,2017-10-16 20:15:00,
2017-10-16 13:20:00,82.9,27.0,30.09,SE,130,1.0,1.0,13,0.00,,,0.00,Wunderground v.1.15,2017-10-16 20:20:00,
2017-10-16 13:25:00,82.7,26.8,30.09,ESE,123,1.0,1.0,13,0.00,,,0.00,Wunderground v.1.15,2017-10-16 20:25:00,
2017-10-16 13:30:00,82.2,26.4,30.09,SSE,167,1.0,1.0,13,0.00,,,0.00,Wunderground v.1.15,2017-10-16 20:30:00,
2017-10-16 13:35:00,82.1,28.2,30.08,SW,225,1.0,1.0,14,0.00,,,0.00,Wunderground v.1.15,2017-10-16 20:35:00,
2017-10-16 13:45:00,82.5,26.7,30.08,SE,132,2.0,5.0,13,0.00,,,0.00,Wunderground v.1.15,2017-10-16 20:45:00,
2017-10-16 13:50:00,82.9,30.5,30.08,SSW,212,1.0,1.0,15,0.00,,,0.00,Wunderground v.1.15,2017-10-16 20:50:00,
2017-10-16 13:55:00,83.0,28.9,30.08,SW,223,0.0,1.0,14,0.00,,,0.00,Wunderground v.1.15,2017-10-16 20:55:00,
2017-10-16 14:10:00,82.5,31.8,30.07,SW,222,0.0,0.0,16,0.00,,,0.00,Wunderground v.1.15,2017-10-16 21:10:00,
2017-10-16 14:15:00,82.9,33.6,30.07,WSW,255,0.0,0.0,17,0.00,,,0.00,Wunderground v.1.15,2017-10-16 21:15:00,
2017-10-16 14:20:00,82.9,33.6,30.07,SW,226,0.0,0.0,17,0.00,,,0.00,Wunderground v.1.15,2017-10-16 21:20:00,
2017-10-16 14:25:00,83.1,35.2,30.07,SSW,210,0.0,0.0,18,0.00,,,0.00,Wunderground v.1.15,2017-10-16 21:25:00,
2017-10-16 14:35:00,83.0,35.1,30.07,SSW,200,0.0,0.0,18,0.00,,,0.00,Wunderground v.1.15,2017-10-16 21:35:00,
2017-10-16 14:40:00,82.2,35.8,30.07,SSE,159,0.0,0.0,19,0.00,,,0.00,Wunderground v.1.15,2017-10-16 21:40:00,
2017-10-16 14:45:00,81.4,36.5,30.07,WSW,242,1.0,1.0,20,0.00,,,0.00,Wunderground v.1.15,2017-10-16 21:45:00,
2017-10-16 14:50:00,81.2,36.3,30.07,South,171,0.0,0.0,20,0.00,,,0.00,Wunderground v.1.15,2017-10-16 21:50:00,
2017-10-16 14:55:00,81.0,34.8,30.07,SSE,150,0.0,0.0,19,0.00,,,0.00,Wunderground v.1.15,2017-10-16 21:55:00,
2017-10-16 15:10:00,81.6,35.3,30.06,SW,214,0.0,0.0,19,0.00,,,0.00,Wunderground v.1.15,2017-10-16 22:10:00,
2017-10-16 15:20:00,82.0,35.7,30.06,South,190,0.0,0.0,19,0.00,,,0.00,Wunderground v.1.15,2017-10-16 22:20:00,
2017-10-16 15:30:00,81.7,35.4,30.07,SSW,199,0.0,0.0,19,0.00,,,0.00,Wunderground v.1.15,2017-10-16 22:30:00,
2017-10-16 15:35:00,81.4,35.2,30.07,SSW,202,0.0,0.0,19,0.00,,,0.00,Wunderground v.1.15,2017-10-16 22:35:00,
2017-10-16 15:40:00,81.2,35.0,30.07,SSW,202,0.0,0.0,19,0.00,,,0.00,Wunderground v.1.15,2017-10-16 22:40:00,
2017-10-16 15:45:00,81.8,35.5,30.07,SSW,205,0.0,0.0,19,0.00,,,0.00,Wunderground v.1.15,2017-10-16 22:45:00,
2017-10-16 15:50:00,82.5,34.7,30.07,WSW,258,0.0,0.0,18,0.00,,,0.00,Wunderground v.1.15,2017-10-16 22:50:00,
2017-10-16 15:55:00,82.6,34.8,30.06,West,281,0.0,0.0,18,0.00,,,0.00,Wunderground v.1.15,2017-10-16 22:55:00,
2017-10-16 16:00:00,82.7,34.9,30.06,West,279,0.0,0.0,18,0.00,,,0.00,Wunderground v.1.15,2017-10-16 23:00:00,
2017-10-16 16:10:00,81.6,34.0,30.06,SSE,162,0.0,0.0,18,0.00,,,0.00,Wunderground v.1.15,2017-10-16 23:10:00,
2017-10-16 16:15:00,81.3,35.1,30.06,SSE,151,0.0,0.0,19,0.00,,,0.00,Wunderground v.1.15,2017-10-16 23:15:00,
2017-10-16 16:20:00,81.4,35.2,30.06,West,269,0.0,0.0,19,0.00,,,0.00,Wunderground v.1.15,2017-10-16 23:20:00,
2017-10-16 16:25:00,81.5,35.2,30.06,West,268,0.0,0.0,19,0.00,,,0.00,Wunderground v.1.15,2017-10-16 23:25:00,
2017-10-16 16:35:00,82.0,35.7,30.06,West,268,0.0,0.0,19,0.00,,,0.00,Wunderground v.1.15,2017-10-16 23:35:00,
2017-10-16 16:40:00,82.3,35.9,30.06,West,268,0.0,0.0,19,0.00,,,0.00,Wunderground v.1.15,2017-10-16 23:40:00,
2017-10-16 16:45:00,82.3,34.5,30.06,West,268,0.0,0.0,18,0.00,,,0.00,Wunderground v.1.15,2017-10-16 23:45:00,
2017-10-16 16:55:00,82.5,34.7,30.05,West,268,0.0,0.0,18,0.00,,,0.00,Wunderground v.1.15,2017-10-16 23:55:00,
2017-10-16 17:00:00,82.8,34.9,30.05,West,268,0.0,0.0,18,0.00,,,0.00,Wunderground v.1.15,2017-10-17 00:00:00,
2017-10-16 17:10:00,83.0,36.5,30.05,West,268,0.0,0.0,19,0.00,,,0.00,Wunderground v.1.15,2017-10-17 00:10:00,
2017-10-16 17:15:00,82.9,36.4,30.05,West,268,0.0,0.0,19,0.00,,,0.00,Wunderground v.1.15,2017-10-17 00:15:00,
2017-10-16 17:20:00,82.9,36.4,30.05,West,268,0.0,0.0,19,0.00,,,0.00,Wunderground v.1.15,2017-10-17 00:20:00,
2017-10-16 17:25:00,83.0,37.8,30.05,NW,325,0.0,0.0,20,0.00,,,0.00,Wunderground v.1.15,2017-10-17 00:25:00,
2017-10-16 17:30:00,83.1,36.6,30.04,NNE,27,0.0,0.0,19,0.00,,,0.00,Wunderground v.1.15,2017-10-17 00:30:00,
2017-10-16 17:35:00,82.4,34.6,30.04,NNE,27,0.0,0.0,18,0.00,,,0.00,Wunderground v.1.15,2017-10-17 00:35:00,
2017-10-16 17:40:00,81.9,35.6,30.04,NNE,27,0.0,0.0,19,0.00,,,0.00,Wunderground v.1.15,2017-10-17 00:40:00,